www.pogodaiklimat.ru

Погода и климат >> Архив погоды >> Ирак >> Chamchamal


ПОГОДА в Chamchamal

  • Прогноз погоды в Chamchamal
  • Монитор погоды в Chamchamal
  • Климат города

АРХИВ ПОГОДЫ в Chamchamal

Время (UTC), дата Ветер
(напр.,м/с)
 
Видим.   Явления Облачность Т
(С)
Тd
(С)
f
(%)
Тe
(С)
Тes
(С)
Комфортность P
(гПа)
Po
(гПа)
Тmin
(С)
Tmax
(С)
R
(мм)
R24
(мм)
S
(см)
12 18.02 ЮЗ 4 10 км 6/6 720 м
[Sc diur, vesp]
+11.6 +6.1 69 +10 +11 1004.5 1005.0
15 18.02 ЮВ 4 8000 м дымка {дождь} 10/8 600 м
[Cu Sc As op]
+9.2 +6.4 83 +6 +6 1006.9 1007.0
18 18.02 ЮВ 2 8000 м слабый дождь 10/8 600 м
[Cu Sc As op]
+8.6 +7.1 90 +7 +7 1007.5 1008.0 +12.2 8
12 19.02 В 3 10 км 8/8 660 м
[Cu med, cong]
+11.5 +5.0 64 +10 +11 1011.5 1012.0
15 19.02 З 2 10 км 8/5 720 м
[Sc diur, vesp Ac trans]
+10.8 +4.6 66 +10 +10 1013.0 1013.0
18 19.02 штиль 0 10 км ясно +8.0 +5.8 86 +7 +7 1015.9 1016.0 +12.0
03 20.02 штиль 0 10 км ясно +4.5 +3.3 92 +3 +3 1017.8 1018.0
09 20.02 штиль 0 10 км 5/4 660 м
[Cu med, cong Ci]
+14.8 +4.5 50 +15 +23 1015.2 1015.0
12 20.02 ЮВ 1 10 км 6/5 720 м
[Sc diur, vesp Ac cuf]
+16.0 +3.4 43 +17 +19 1013.2 1013.0
15 20.02 В 1 10 км 6/4 660 м
[Cu med, cong Ac trans]
+13.8 +4.5 53 +14 +14 1012.7 1013.0
18 20.02 штиль 0 10 км 8/3 720 м
[Cu med, cong Ac trans]
+11.3 +7.1 75 +11 +11 1014.8 1015.0 +17.3
06 21.02 ЮВ 1 8000 м мгла 8/0
[Ac cuf Ci]
+10.0 +6.8 80 +10 +13 1013.9 1014.0 +6.6
09 21.02 В 3 9000 м мгла 6/0
[Ac trans Ci]
+13.7 +7.2 65 +13 +19 1013.2 1013.0
12 21.02 В 2 9000 м в посл. час дождь 10/5 660 м
[Cu Sc As op]
+13.0 +5.6 61 +12 +13 1012.6 1013.0
15 21.02 С 2 8000 м дымка 9/0
[Ac As]
+12.0 +7.5 74 +11 +11 1012.5 1013.0
03 22.02 штиль 0 8000 м дымка 9/6 720 м
[Sc Ac trans]
+9.0 +8.0 93 +8 +8 1012.0 1012.0
06 22.02 штиль 0 9000 м мгла {дождь} 6/5
[Sc Ci]
+9.8 +7.5 86 +9 +12 1011.8 1012.0 +8.0 9
09 22.02 Ю 2 10 км 6/5 720 м
[Sc diur, vesp Ci sp]
+15.1 +8.4 64 +15 +20 1009.4 1009.0
12 22.02 Ю 2 10 км 6/5 720 м
[Sc diur, vesp]
+17.5 +7.4 51 +18 +20 1008.1 1008.0
18 22.02 штиль 0 9000 м мгла 9/8 600 м
[Cu Sc Ci sp]
+13.2 +9.9 80 +13 +13 1009.3 1009.0 +18.0
06 23.02 ЮВ 4 6000 м в посл. час дождь 9/8 600 м
[Cu Sc Ci]
+11.0 +10.0 94 +8 +9 1010.8 1011.0 +8.0 3
09 23.02 ЮВ 4 8000 м мгла 6/6 600 м
[Cu Sc]
+15.4 +7.1 58 +15 +18 1009.5 1010.0
12 23.02 ЮВ 4 8000 м мгла 8/8 600 м
[Cu Sc]
+15.0 +6.9 58 +14 +15 1008.3 1008.0
03 24.02 В 1 8000 м слабый дождь 10/8 600 м
[Cu Sc As op]
+8.5 +6.3 86 +8 +8 1009.4 1009.0
06 24.02 штиль 0 8000 м дымка 10/8 660 м
[Cu Sc As op]
+9.5 +7.4 87 +9 +9 1009.6 1010.0 +7.8 4
09 24.02 штиль 0 9000 м дымка {дождь} 10/8 660 м
[Cu Sc As op]
+10.8 +8.1 83 +10 +11 1009.0 1009.0
12 24.02 штиль 0 9000 м мгла 10/8 660 м
[Cu Sc As op]
+12.0 +7.0 71 +12 +12 1007.1 1007.0
15 24.02 штиль 0 10 км 6/6 600 м
[Cu Sc]
+11.5 +7.4 76 +11 +11 1007.4 1007.0
03 25.02 штиль 0 8000 м дымка 6/6 720 м
[Sc diur, vesp]
+6.9 +6.0 94 +6 +6 1010.9 1011.0

 

Местоположение метеостанции Chamchamal (Ирак): широта 35.52 долгота 44.83 высота над уровнем моря 701 м.

В архиве по умолчанию представлена погода в Chamchamal за последнюю неделю. Архивные данные за месяц целиком и за предыдущие месяцы, начиная с января 2011 года, Вы можете получить, выбрав интересующий диапазон дат из раскрывающегося списка и нажав кнопку "Ввод!".

Внимание! Время в таблицах - всемирное. Для получения местного времени необходимо прибавить поправку, которая в Chamchamal равна 3 ч.

Смотрите также архив погоды в соседних городах и на ближайших метеорологических станциях:

Погода в Kirkuk (Ирак) (39 км)
Погода в Sulaimaniya (Ирак) (56 км)
Погода в Tuz (Ирак) (73 км)
Погода в Erbeel (Ирак) (103 км)
Погода в Halabcha (Ирак) (108 км)
Погода в Salahadin (Ирак) (111 км)
Погода в Makhmoor (Ирак) (114 км)
Погода в Baiji (Ирак) (139 км)
Погода в Khanaqin (Ирак) (146 км)
Погода в Tikrit (Ирак) (147 км)

Пояснения к столбцам:

Ветер - указаны скорость ветра в м/с - средняя за 10 мин, порывы в срок и между сроками (в фигурных скобках) и направление, откуда дует ветер: С - северный, СВ - северо-восточный, В - восточный, ЮВ - юго-восточный, Ю - южный, ЮЗ - юго-западный, З - западный, СЗ - северо-западный.
Видимость - горизонтальная дальность видимости в метрах или километрах. При видимости от 1 до 10 км при отсутствии осадков обычно наблюдается дымка, при ухудшении видимости до 1 км и менее - туман. В сухую погоду видимость может ухудшаться дымом, пылью или мглою.
Явления - указаны атмосферные явления, наблюдавшиеся в срок или в последний час перед сроком; фигурными скобками обозначены явления, наблюдавшиеся между сроками (за 1-3 часа до срока); квадратными скобками обозначены град или гололедные отложения с указанием их диаметра в мм.
Облачность - указаны через наклонную черту общая и нижняя облачность в баллах и высота нижней границы облаков в метрах; квадратными скобками обозначены формы облаков: Ci - перистые, Cs - перисто-слоистые, Cc - перисто-кучевые, Ac - высококучевые, As - высокослоистые, Sc - слоисто-кучевые, Ns - слоисто-дождевые, Cu - кучевые, Cb - кучево-дождевые. Подробнее классификацию облаков см. в Атласе облаков (PDF).
T - Температура воздуха - температура, измеренная на высоте 2 м над землей.
Td - Температура точки росы - температура, при понижении до которой содержащийся в воздухе водяной пар достигнет насыщения.
f - Относительная влажность воздуха - влажноcть воздуха, измеренная на высоте 2 м над землей.
Te - Эффективная температура - температура, которую ощущает одетый по сезону человек в тени. Характеристика душности погоды. При расчете учитывается влияние влажности воздуха и скорости ветра на теплоощущения человека.
Tes - Эффективная температура на солнце - температура, которую ощущает человек, с поправкой на солнечный нагрев. Характеристика знойности погоды. Зависит от высоты солнца над горизонтом, облачности и скорости ветра. Ночью, в пасмурную погоду, а также при ветре 12 м/с и более поправка равна нулю.
P - Атмосферное давление - приведенное к уровню моря атмосферное давление.
Po - Атмосферное давление - измеренное на уровне метеостанции атмосферное давление.
Tmin - Минимальная температура - минимум температуры воздуха на высоте 2 м над землей.
Tmax - Максимальная температура - максимум температуры воздуха на высоте 2 м над землей.
R - Количество осадков - Количество выпавших осадков за период времени, мм. При наведении курсора мыши на число - период времени, за который выпало указанное количество осадков.
R24 - Количество осадков - Количество выпавших осадков за 24 часа, мм.
S - Снежный покров - Высота снежного покрова, см. При наведении курсора мыши на число - состояние снежного покрова и степень покрытия местности в баллах.